GW2297 Weather Reports


time (UTC)temp
F
wind
direction
speed
knots
gust
knots
rain 1hr
in
rain 24hr
in
rain mn
in
humidity
%
barometer
mb
20260510153050 73 0 1.7 5.2 0.00 0.35 0.01 85 1017.6
20260510151550 71 64 1.7 4.3 0.00 0.35 0.01 90 1017.6
20260510150100 70 0 0.9 3.5 0.00 0.35 0.01 90 1017.8
20260510144605 70 0 0.9 3.5 0.00 0.47 0.01 89 1018.1
20260510143050 68 22 0.9 3.5 0.00 0.47 0.01 92 1018.0
20260510141545 68 0 0.9 3.5 0.00 0.47 0.01 93 1018.2
20260510140046 68 118 0.9 2.6 0.01 0.47 0.01 97 1017.9
20260510134548 68 124 0.0 2.6 0.01 0.66 0.01 99 1017.6
20260510133051 67 0 0.9 3.5 0.01 0.66 0.01 99 1017.5
20260510131550 66 0 0.9 3.5 0.01 0.66 0.01 99 1017.3
20260510130050 65 72 0.0 2.6 0.00 0.65 0.00 99 1017.2
20260510124543 65 105 0.9 2.6 0.00 0.77 0.00 99 1017.0
20260510123056 64 0 0.0 2.6 0.00 0.77 0.00 99 1016.9
20260510121548 64 0 0.0 1.7 0.00 0.77 0.00 99 1016.7
20260510120040 63 147 0.9 2.6 0.00 0.77 0.00 99 1016.4
20260510114605 63 0 0.0 1.7 0.00 0.77 0.00 99 1016.1
20260510113054 63 124 0.0 2.6 0.00 0.77 0.00 99 1015.8
20260510111543 62 70 0.9 3.5 0.00 0.77 0.00 98 1015.4
20260510110045 62 82 0.9 2.6 0.00 0.77 0.00 98 1015.2
20260510104556 62 0 0.0 0.9 0.00 0.77 0.00 98 1014.8
20260510103039 62 67 0.9 1.7 0.00 0.77 0.00 98 1014.6
20260510101545 62 0 0.0 1.7 0.00 0.77 0.00 98 1014.6
20260510100057 62 0 0.0 0.9 0.00 0.77 0.00 98 1014.6
20260510094551 62 0 0.0 0.9 0.00 0.77 0.00 98 1014.5
20260510093041 63 0 0.0 0.9 0.00 0.77 0.00 98 1014.3
20260510091549 63 0 0.0 0.9 0.00 0.77 0.00 98 1014.4
20260510090046 63 0 0.0 0.9 0.00 0.77 0.00 98 1014.1
20260510084542 63 0 0.0 1.7 0.00 0.78 0.00 98 1014.0
20260510083044 63 0 0.0 1.7 0.00 0.78 0.00 98 1013.9
20260510081542 63 14 0.9 3.5 0.00 0.78 0.00 98 1013.9
20260510080051 64 289 0.9 1.7 0.00 0.78 0.00 98 1013.8
20260510074604 64 0 0.0 0.0 0.00 0.80 0.00 98 1013.7
20260510073047 64 0 0.0 0.9 0.00 0.80 0.00 98 1013.9
20260510071540 64 0 0.0 2.6 0.00 0.80 0.00 98 1013.9
20260510070100 64 179 0.0 1.7 0.00 0.80 0.00 98 1013.9
20260510064546 64 0 0.0 1.7 0.00 0.80 0.00 98 1013.6
20260510063044 64 79 0.0 0.9 0.00 0.80 0.00 98 1013.4
20260510061546 64 0 0.0 1.7 0.00 0.80 0.00 98 1013.5
20260510060043 64 319 0.0 1.7 0.00 0.80 0.00 98 1013.6
20260510054546 64 0 0.0 0.9 0.00 0.80 0.00 98 1013.5
20260510053041 64 0 0.0 0.9 0.00 0.80 0.00 98 1013.5
20260510051544 65 0 0.0 0.9 0.00 0.80 0.00 98 1013.4
20260510050047 65 0 0.0 0.9 0.00 0.80 0.00 98 1013.7
20260510044542 65 71 0.0 1.7 0.00 0.80 0.80 98 1013.7
20260510043040 65 0 0.0 0.9 0.00 0.80 0.80 98 1013.8
20260510041550 65 0 0.0 1.7 0.00 0.80 0.80 98 1014.4
20260510040048 65 0 0.0 0.9 0.00 0.80 0.80 98 1014.5
20260510034545 65 0 0.9 4.3 0.00 0.80 0.80 98 1014.6
20260510033054 66 174 0.0 1.7 0.00 0.80 0.80 98 1014.8
20260510031543 66 340 0.9 2.6 0.00 0.80 0.80 98 1015.1
20260510030049 66 0 0.0 2.6 0.00 0.80 0.80 98 1014.7
20260510024546 66 0 0.0 1.7 0.00 0.80 0.80 98 1014.1
20260510023042 66 123 0.9 1.7 0.00 0.80 0.80 98 1013.9
20260510021541 66 0 0.0 1.7 0.01 0.80 0.80 98 1014.1
20260510020044 66 0 0.9 2.6 0.01 0.80 0.80 97 1014.2
20260510014549 66 86 0.9 2.6 0.01 0.81 0.80 97 1013.5
20260510013046 66 21 0.0 1.7 0.01 0.81 0.80 97 1013.9
20260510011542 66 0 0.0 0.9 0.00 0.80 0.79 97 1013.7
20260510010049 66 0 0.0 1.7 0.00 0.80 0.79 97 1013.6
20260510004541 66 0 0.0 0.9 0.00 0.81 0.79 97 1013.6
20260510003054 67 0 0.0 0.9 0.00 0.81 0.79 96 1014.0
20260510001547 67 127 0.0 1.7 0.00 0.81 0.79 96 1013.8
20260510000051 67 208 0.0 1.7 0.00 0.81 0.79 96 1013.3
20260509234549 67 0 0.0 0.9 0.00 0.83 0.79 96 1012.9
20260509233043 67 0 0.0 1.7 0.00 0.83 0.79 96 1013.1
20260509231542 67 271 1.7 3.5 0.00 0.83 0.79 96 1013.3
20260509230044 67 0 0.0 2.6 0.00 0.83 0.79 96 1012.5
20260509224550 67 187 0.9 3.5 0.00 0.87 0.79 96 1012.8
20260509223047 66 243 0.0 1.7 0.00 0.87 0.79 96 1013.2
20260509221541 66 0 0.9 5.2 0.00 0.87 0.79 97 1012.8
20260509220059 66 127 0.0 2.6 0.00 0.87 0.79 96 1012.0
20260509214550 66 0 0.0 1.7 0.00 1.07 0.79 97 1012.4
20260509213049 66 293 0.9 2.6 0.00 1.07 0.79 96 1012.5
20260509211553 66 345 0.9 3.5 0.00 1.07 0.79 96 1012.3
20260509210055 66 304 0.9 3.5 0.00 1.07 0.79 97 1012.6
20260509204558 66 0 0.9 3.5 0.00 1.27 0.79 97 1012.5
20260509203100 65 276 1.7 5.2 0.00 1.27 0.79 97 1012.4
20260509201543 66 280 1.7 3.5 0.00 1.27 0.79 98 1012.9
20260509200049 65 291 1.7 4.3 0.00 1.27 0.79 97 1012.0
20260509194545 65 286 0.0 2.6 0.00 1.35 0.79 98 1012.1
20260509193045 65 0 0.9 3.5 0.00 1.35 0.79 98 1012.0
20260509191553 65 0 0.0 4.3 0.00 1.35 0.79 98 1011.8
20260509190044 65 335 0.0 3.5 0.00 1.35 0.79 98 1012.3
20260509184546 65 223 1.7 6.1 0.01 1.36 0.79 98 1012.5
20260509183043 65 130 0.9 2.6 0.01 1.36 0.79 98 1012.8
20260509181543 65 257 2.6 6.1 0.02 1.36 0.79 98 1012.4
20260509180044 64 170 1.7 4.3 0.02 1.36 0.79 98 1012.0
20260509174553 64 263 1.7 7.0 0.05 2.28 0.78 98 1012.6
20260509173055 64 214 1.7 6.1 0.07 2.28 0.78 98 1012.2
20260509171553 64 295 1.7 7.0 0.09 2.27 0.77 98 1012.5
20260509170046 64 101 1.7 5.2 0.10 2.27 0.77 98 1010.9
20260509164549 63 80 0.9 7.8 0.08 2.43 0.73 98 1013.2
20260509163048 63 157 1.7 6.1 0.12 2.41 0.71 98 1013.6
20260509161547 63 133 1.7 6.1 0.17 2.38 0.68 98 1014.0
20260509160047 63 286 2.6 6.1 0.20 2.36 0.67 98 1013.1
20260509154559 63 352 2.6 6.1 0.23 2.34 0.65 98 1014.1